Charlottesville, VA

8:20 PM EDT on May 26, 2017 (GMT -0400)
Charlottesville-Albemarle

Weather History for KCHO - March, 2013

Change the Weather History Date:

Tuesday, March 26, 2013

  Actual Average Record
Temperature  
Mean Temperature 39 °F 49 °F  
Max Temperature 46 °F 61 °F 85 °F (1939)
Min Temperature 31 °F 38 °F 19 °F (1906)
Degree Days  
Heating Degree Days 26 16  
Month to date heating degree days 632 516  
Since 1 July heating degree days 3689 3928  
Cooling Degree Days 0 0  
Month to date cooling degree days 0 0  
Year to date cooling degree days 0 0  
Moisture  
Dew Point 25 °F    
Average Humidity 60    
Maximum Humidity 78    
Minimum Humidity 42    
Precipitation  
Precipitation T in 0.13 in 0.46 in (2010)
Month to date precipitation 2.79 2.97  
Year to date precipitation 9.23 8.44  
Sea Level Pressure  
Sea Level Pressure 29.88 in    
Wind  
Wind Speed 5 mph (NW)    
Max Wind Speed 16 mph    
Max Gust Speed 28 mph    
Visibility 10 miles    
Events      
T = Trace of Precipitation, MM = Missing Value Source: NWS Daily Summary

Daily Weather History Graph

Daily Weather History Graph

Search for Another Location

Airport or City:

Trip Planner

Search our weather history database for the weather conditions in past years. The results will help you decide how hot, cold, wet, or windy it might be!

Date:

Astronomy

Mar. 26, 2013 Rise Set
Actual Time 7:07 AM EDT 7:31 PM EDT
Civil Twilight 6:41 AM EDT 7:58 PM EDT
Nautical Twilight 6:10 AM EDT 8:29 PM EDT
Astronomical Twilight 5:38 AM EDT 9:00 PM EDT
Moon 7:06 PM EDT (3/26) 6:22 AM EDT (3/26)
Length of Visible Light 13h 16m
Length of Day
12h 23m
Waxing Gibbous, 99% of the Moon is Illuminated
Mar 26
Waxing Gibbous
Mar 27
Full
Apr 3
Last Quarter
Apr 10
New
Apr 18
First Quarter

Hourly Weather History & Observations

Time (EDT) Temp. Windchill Dew Point Humidity Pressure Visibility Wind Dir Wind Speed Gust Speed Precip Events Conditions
12:53 AM 36.0 °F 32.1 °F 25.0 °F 64% 29.73 in 10.0 mi WNW 4.6 mph - N/A   Overcast
1:53 AM 37.0 °F - 25.0 °F 62% 29.75 in 10.0 mi Calm Calm - N/A   Overcast
2:53 AM 35.1 °F 32.2 °F 25.0 °F 67% 29.75 in 10.0 mi West 3.5 mph - N/A   Clear
3:53 AM 34.0 °F 31.0 °F 25.0 °F 70% 29.76 in 10.0 mi SW 3.5 mph - N/A   Clear
4:53 AM 34.0 °F - 25.0 °F 70% 29.76 in 10.0 mi Calm Calm - N/A   Partly Cloudy
5:53 AM 35.1 °F - 24.1 °F 64% 29.78 in 10.0 mi Calm Calm - N/A   Partly Cloudy
6:53 AM 33.1 °F - 25.0 °F 72% 29.81 in 10.0 mi Calm Calm - N/A   Mostly Cloudy
7:53 AM 32.0 °F - 27.0 °F 82% 29.83 in 10.0 mi Calm Calm - N/A   Overcast
8:53 AM 34.0 °F - 27.0 °F 75% 29.86 in 10.0 mi Calm Calm - N/A   Overcast
9:53 AM 39.9 °F 36.7 °F 28.0 °F 63% 29.88 in 10.0 mi North 4.6 mph - N/A   Overcast
10:53 AM 39.0 °F 34.8 °F 28.0 °F 65% 29.90 in 10.0 mi NW 5.8 mph - 0.00 in   Overcast
11:53 AM 43.0 °F 38.2 °F 24.1 °F 47% 29.91 in 10.0 mi NNW 8.1 mph 16.1 mph N/A   Scattered Clouds
12:53 PM 44.1 °F 40.8 °F 24.1 °F 45% 29.91 in 10.0 mi Variable 5.8 mph - N/A   Mostly Cloudy
1:53 PM 43.0 °F 39.5 °F 21.9 °F 43% 29.91 in 10.0 mi Variable 5.8 mph - N/A   Mostly Cloudy
2:53 PM 43.0 °F 36.8 °F 21.9 °F 43% 29.91 in 10.0 mi NW 11.5 mph 19.6 mph N/A   Overcast
3:53 PM 43.0 °F 40.3 °F 24.1 °F 47% 29.91 in 10.0 mi Variable 4.6 mph - N/A   Mostly Cloudy
4:53 PM 44.1 °F 41.5 °F 25.0 °F 47% 29.91 in 10.0 mi NW 4.6 mph 18.4 mph 0.00 in   Overcast
5:53 PM 46.0 °F 41.9 °F 24.1 °F 42% 29.93 in 10.0 mi NNW 8.1 mph - N/A   Scattered Clouds
6:53 PM 44.1 °F 40.8 °F 24.1 °F 45% 29.95 in 10.0 mi North 5.8 mph - N/A   Overcast
7:53 PM 42.1 °F 40.2 °F 24.1 °F 49% 29.98 in 10.0 mi NW 3.5 mph - N/A   Scattered Clouds
8:53 PM 41.0 °F 34.3 °F 24.1 °F 51% 30.00 in 10.0 mi NNW 11.5 mph - N/A   Mostly Cloudy
9:53 PM 39.9 °F 33.9 °F 24.1 °F 53% 30.02 in 10.0 mi North 9.2 mph - N/A   Clear
10:53 PM 37.9 °F 34.4 °F 24.1 °F 57% 30.04 in 10.0 mi WNW 4.6 mph - N/A   Scattered Clouds
11:53 PM 39.0 °F 34.8 °F 24.1 °F 55% 30.04 in 10.0 mi NW 5.8 mph - N/A   Partly Cloudy